This is the latest recevied weather packets stored in our database for station/object HB9FHL-13. If no packets are shown the sender has not sent any weather packets the latest 10 day(s).
| Time | Temp. | Humidity | Pressure | Rain* | Wind** | Luminosity | Snow |
|---|---|---|---|---|---|---|---|
| 1777712702 | 17.78° C | - | 1028.1 hPa | 0 mm | - | - | - |
| 1777712401 | 18.33° C | - | 1023.7 hPa | 0 mm | - | - | - |
| 1777712101 | 18.33° C | - | 1027.3 hPa | 0 mm | - | - | - |
| 1777711800 | 17.78° C | - | 1029 hPa | 0 mm | - | - | - |
| 1777711500 | 17.78° C | - | 1028.5 hPa | 0 mm | - | - | - |
| 1777711199 | 17.22° C | - | 1021.1 hPa | 0 mm | - | - | - |
| 1777710899 | 16.67° C | - | 1024 hPa | 0 mm | - | - | - |
| 1777710599 | 17.78° C | - | 1029.4 hPa | 0 mm | - | - | - |
| 1777710298 | 17.22° C | - | 1025.5 hPa | 0 mm | - | - | - |
| 1777709998 | 17.22° C | - | 1023.3 hPa | 0 mm | - | - | - |
| 1777709697 | 16.67° C | - | 1027 hPa | 0 mm | - | - | - |
| 1777709397 | 17.78° C | - | 1026.6 hPa | 0 mm | - | - | - |
| 1777709096 | 17.22° C | - | 1027.5 hPa | 0 mm | - | - | - |
| 1777708795 | 16.67° C | - | 1026.6 hPa | 0 mm | - | - | - |
| 1777708492 | 17.22° C | - | 1020.8 hPa | 0 mm | - | - | - |
| 1777708192 | 17.22° C | - | 1033.1 hPa | 0 mm | - | - | - |
| 1777707891 | 16.67° C | - | 1021.1 hPa | 0 mm | - | - | - |
| 1777707591 | 17.22° C | - | 1027.3 hPa | 0 mm | - | - | - |
| 1777707288 | 16.67° C | - | 1025.3 hPa | 0 mm | - | - | - |
| 1777706991 | 16.67° C | - | 1024.3 hPa | 0 mm | - | - | - |
| 1777706681 | 18.33° C | - | 1022.5 hPa | 0 mm | - | - | - |
| 1777706381 | 17.22° C | - | 1023.8 hPa | 0 mm | - | - | - |
| 1777706080 | 16.67° C | - | 1026.9 hPa | 0 mm | - | - | - |
| 1777705781 | 16.67° C | - | 1025.7 hPa | 0 mm | - | - | - |
| 1777705479 | 16.67° C | - | 1024.1 hPa | 0 mm | - | - | - |
* Rain since midnight (hover to see other rain measurements)
** Current wind speed in m/s (hover to see current wind gust speed)